This demonstration page uses our WeatherBlox Daily Observations layout. Learn more.

Left ArrowRight Arrow

40.92945, -100.16068

Hourly Observations for June 6, 2016

Temp ( °F °C ) Dew Point ( °F °C ) Humidity (%) Winds ( mph kmh ) Pressure ( in mb ) Visibility ( mi km ) Precip ( " mm )
12:15 am 00:15 Clear 62 16.4 53 11.7 74 74 Calm 29.97 1015 10 16 N/A
12:35 am 00:35 Clear 60 15.5 54 12.1 80 80 Calm 29.97 1015 10 16 N/A
12:55 am 00:55 Clear 60 15.7 54 12.2 80 80 WNW 3 6 29.94 1014 10 16 N/A
1:15 am 01:15 Clear 60 15.4 53 11.7 79 79 NW 3 6 29.94 1014 10 16 N/A
1:35 am 01:35 Clear 59 15 53 11.7 81 81 N 5 7 29.94 1014 10 16 N/A
1:55 am 01:55 Clear 58 14.5 53 11.6 83 83 NNW 3 6 29.94 1014 10 16 N/A
2:15 am 02:15 Clear 58 14.3 52 11.2 82 82 W 5 7 29.94 1014 10 16 N/A
2:35 am 02:35 Clear 57 14 52 11.1 83 83 W 3 6 29.94 1014 10 16 N/A
2:55 am 02:55 Clear 55 12.9 52 11.1 89 89 Calm 29.94 1014 10 16 N/A
3:15 am 03:15 Clear 56 13.4 51 10.6 83 83 WNW 6 9 29.94 1014 10 16 N/A
3:35 am 03:35 Clear 56 13.2 52 11 87 87 NNW 5 7 29.94 1014 10 16 N/A
3:55 am 03:55 Clear 56 13.1 51 10.8 86 86 N 5 7 29.94 1014 10 16 N/A
4:15 am 04:15 Clear 56 13.1 51 10.5 84 84 NW 3 6 29.94 1014 10 16 N/A
4:35 am 04:35 Clear 56 13.2 51 10.5 84 84 NW 3 6 29.94 1014 10 16 N/A
4:55 am 04:55 Clear 55 13 51 10.4 84 84 NW 3 6 29.94 1014 10 16 N/A
5:15 am 05:15 Clear 55 13 51 10.3 84 84 NW 3 6 29.94 1014 10 16 N/A
5:35 am 05:35 Clear 54 12.1 50 10.1 88 88 Calm 29.97 1015 10 16 N/A
5:55 am 05:55 Clear 55 12.6 51 10.6 88 88 WNW 3 6 29.97 1015 10 16 N/A
6:15 am 06:15 Sunny 53 11.9 51 10.4 91 91 NNW 3 6 29.97 1015 10 16 N/A
6:35 am 06:35 Sunny 54 12.1 50 10 87 87 NNW 3 6 29.97 1015 10 16 N/A
6:55 am 06:55 Sunny 53 11.8 51 10.3 91 91 N 5 7 29.97 1015 10 16 N/A
7:15 am 07:15 Partly Cloudy 57 14 53 11.7 86 86 Calm 29.94 1014 10 16 N/A
7:35 am 07:35 Partly Cloudy 61 16 55 12.8 81 81 Calm 29.94 1014 10 16 N/A
7:55 am 07:55 Sunny 61 16.3 54 12.1 76 76 Calm 29.97 1015 10 16 N/A
8:15 am 08:15 Sunny 64 17.5 56 13.3 77 77 Calm 29.94 1014 10 16 N/A
8:35 am 08:35 Sunny 65 18.6 56 13.1 71 71 Calm 29.94 1014 10 16 N/A
8:55 am 08:55 Partly Cloudy 67 19.5 56 13.5 68 68 Calm 29.94 1014 10 16 N/A
9:15 am 09:15 Partly Cloudy 69 20.7 58 14.6 68 68 Calm 29.91 1013 10 16 N/A
9:35 am 09:35 Partly Cloudy 73 22.9 59 14.9 61 61 E 6 9 29.91 1013 10 16 N/A
9:55 am 09:55 Sunny 75 23.8 56 13.3 52 52 ENE 8 13 29.88 1012 10 16 N/A
10:15 am 10:15 Partly Cloudy 75 24 57 13.7 53 53 ENE 7 11 29.88 1012 10 16 N/A
10:35 am 10:35 Sunny 77 24.9 56 13.4 49 49 ENE 9 15 29.88 1012 10 16 N/A
10:55 am 10:55 Sunny 77 25.1 56 13.2 48 48 ENE 8 13 29.88 1012 10 16 N/A
11:15 am 11:15 Sunny 78 25.5 55 12.6 45 45 NNE 6 9 29.88 1012 10 16 N/A
11:35 am 11:35 Sunny 78 25.7 52 11 40 40 NE 7 11 29.88 1012 10 16 N/A
11:55 am 11:55 Sunny 79 26.1 51 10.8 38 38 ENE 5 7 29.85 1011 10 16 N/A
12:15 pm 12:15 Sunny 80 26.5 52 10.9 38 38 ENE 7 11 29.85 1011 10 16 N/A
12:35 pm 12:35 Sunny 80 26.6 55 12.8 42 42 ENE 9 15 29.83 1010 10 16 N/A
12:55 pm 12:55 Sunny 79 26.3 52 10.9 38 38 ENE 12 19 29.88 1012 10 16 N/A
1:15 pm 13:15 Sunny 80 26.4 54 12 41 41 ENE 10 17 29.88 1012 10 16 N/A
1:35 pm 13:35 Sunny 80 26.6 53 11.5 39 39 NNE 8 13 29.88 1012 10 16 N/A
1:55 pm 13:55 Sunny 80 26.8 54 12.2 40 40 N 7 11 29.88 1012 10 16 N/A
2:15 pm 14:15 Sunny 80 26.7 53 11.5 39 39 N 8 13 29.88 1012 10 16 N/A
2:35 pm 14:35 Sunny 80 26.7 54 12.3 41 41 NE 13 20 29.88 1012 10 16 N/A
2:55 pm 14:55 Sunny 80 26.6 53 11.9 40 40 NE 8 13 29.88 1012 10 16 N/A
3:15 pm 15:15 Sunny 81 27 53 11.9 39 39 NNE 10 17 29.83 1010 10 16 N/A
3:35 pm 15:35 Sunny 81 27 53 11.6 38 38 ENE 12 19 29.83 1010 10 16 N/A
3:55 pm 15:55 Sunny 81 27 51 10.3 35 35 NE 10 17 29.83 1010 10 16 N/A
4:15 pm 16:15 Sunny 81 27 51 10.5 36 36 ENE 7 11 29.83 1010 10 16 N/A
4:35 pm 16:35 Sunny 80 26.8 51 10.8 37 37 NE 16 26 29.83 1010 10 16 N/A
4:55 pm 16:55 Sunny 80 26.7 50 10.2 36 36 NE 12 19 29.83 1010 10 16 N/A
5:15 pm 17:15 Sunny 80 26.6 50 10.2 36 36 N 10 17 29.83 1010 10 16 N/A
5:35 pm 17:35 Sunny 80 26.4 50 9.9 35 35 NE 8 13 29.85 1011 10 16 N/A
5:55 pm 17:55 Sunny 80 26.5 50 9.8 35 35 NE 13 20 29.85 1011 10 16 N/A
6:15 pm 18:15 Sunny 79 26.2 49 9.4 35 35 NNE 13 20 29.85 1011 10 16 N/A
6:35 pm 18:35 Sunny 79 26 50 10 37 37 NNE 10 17 29.85 1011 10 16 N/A
6:55 pm 18:55 Sunny 78 25.6 49 9.7 37 37 NNE 15 24 29.85 1011 10 16 N/A
7:15 pm 19:15 Sunny 77 25.2 49 9.7 38 38 NE 12 19 29.85 1011 10 16 N/A
7:35 pm 19:35 Sunny 76 24.7 49 9.2 37 37 NE 12 19 29.85 1011 10 16 N/A
7:55 pm 19:55 Sunny 75 24.1 49 9.4 39 39 NE 13 20 29.85 1011 10 16 N/A
8:15 pm 20:15 Sunny 74 23.6 48 8.7 39 39 NE 12 19 29.85 1011 10 16 N/A
8:35 pm 20:35 Sunny 72 22 49 9.5 45 45 ENE 8 13 29.91 1013 10 16 N/A
8:55 pm 20:55 Sunny 67 19.4 51 10.7 57 57 ENE 7 11 29.94 1014 10 16 N/A
9:15 pm 21:15 Clear 65 18.6 50 10.2 58 58 ENE 6 9 29.94 1014 10 16 N/A
9:35 pm 21:35 Clear 62 16.9 51 10.4 66 66 ENE 7 11 29.97 1015 10 16 N/A
9:55 pm 21:55 Clear 60 15.8 50 10 69 69 E 6 9 30.00 1016 10 16 N/A
10:15 pm 22:15 Clear 59 15 50 9.9 72 72 ENE 5 7 30.00 1016 10 16 N/A
10:35 pm 22:35 Clear 60 15.7 49 9.6 67 67 E 6 9 30.00 1016 10 16 N/A
10:55 pm 22:55 Clear 59 15.2 48 9.1 67 67 E 6 9 30.00 1016 10 16 N/A
11:15 pm 23:15 Clear 58 14.7 48 9 69 69 E 5 7 30.00 1016 10 16 N/A
11:35 pm 23:35 Clear 59 15 48 8.8 67 67 E 3 6 30.00 1016 10 16 N/A
11:55 pm 23:55 Clear 58 14.4 47 8.3 67 67 E 3 6 30.00 1016 10 16 N/A

Powered by AerisWeather